Showing default

INTELSAT 11 (PAS 11), 32253

Orbit data source: Space-Track

INTELSAT 11 (PAS 11), 32253 is a payload satellite owned by Intelsat Ltd (US) (US) in GEO that was launched on Fri, 05 Oct 2007 UTC via an ARIANE 5GS launch vehicle from the French Guiana (FRGUI). Payload-class satellites include a variety of spacecraft equipped with specific instruments for various scientific and technological missions. These include communications satellites like Starlink; space stations such as the ISS; scientific satellites like the Hubble; Earth observation satellites from companies like Planet Labs, Umbra, and HawkEye 360; GPS; miniature CubeSats for education and research; and military/defense satellites.

Not visible in the next 10 days
Identifier
32253, 2007-044B
Orbit
GEO
Country
Flag of USUS / ITSO
Related business
Manufacturer
OSC
Mission
On reserve Commercial Communications
Bus & Motor
OSC STAR 2.4, BT-4
Mass
2,450 kg wet, 1,145 kg dry
Launch date (UTC)
2007-10-05 (19 years ago)
Launch vehicle
ARIANE 5GS
Launch site
French Guiana (FRGUI)
Object type
Payload
Rocket body
Debris
Shape & HBR
Box + 2 Pan, 11.2 m
Radar Cross Section
24.482 m², Large (>1 m²)

Expand to show TLE details & history
Last TLE update: 2 days ago

TLE from 2 days ago
0 INTELSAT 11 (PAS 11)
1 32253U 07044B   26171.05797054 -.00000176  00000-0  00000-0 0  9999
2 32253   3.5740  78.6372 0002522  87.4130 236.3380  0.99049599 68477
Epoch: 2026-06-20T01:23Z
TLE epoch observation values (Epoch: 2026-06-20T01:23:28.654Z)
Latitude
-2.10422°
Longitude
113.28526°
Altitude
36,138.436 km
Speed
3.062 km/s
True Right ascension
02h 49m 43s
True Declination
-2° 06' 08"
Sunlit
Object was in daylight at epoch
Visualization orbit readout
Latitude
Unknown
Longitude
Unknown
Altitude
Unknown
Speed
Unknown
Apparent Right ascension
Unknown
Apparent Declination
Unknown
Sunlit
N/A
Visualization observer readout
Local Sidereal Time
23:18:29
Azimuth
Unknown
Elevation
Unknown
Doppler factor
Unknown
Orbital elements
Apogee altitude
36,144.514 km
Perigee altitude
36,123.071 km
Semi-major axis
42,511.929 km
Eccentricity
0.00025
Inclination
3.574°
RAAN
78.6372°
Arg. of periapsis
87.413°
True anomaly
236.31395°
Mean anomaly
236.338°
Eccentric anomaly
236.32597°
Mean motion
0.24761 °/min
Orbital period
1,453.87 mins
BSTAR
0
Loading maneuver chart data...
Computing Atmospheric mass density...
Loading historical data...
Loading historical data...
Loading historical data...
Loading historical data...
Loading historical data...
Loading historical data...
Loading historical data...
Other satellites on launch #44 in the year 2007 (2007-10-05 UTC)

Documentation

Showing up to 5 results
|